Hourly Weather Bolshie Lipyagi

Today, 16 June, Wednesday

Time Temperature Precipitation Wind Pressure Humidity
00:00 +17°C° 0 mm 3 mps 744 mmHg 93%
01:00 +17°C° 0 mm 3 mps 744 mmHg 93%
02:00 +16°C° 0 mm 3 mps 744 mmHg 93%
03:00 +16°C° 0 mm 3 mps 743 mmHg 93%
04:00 +17°C° 0 mm 3 mps 743 mmHg 92%
05:00 +18°C° 0 mm 3 mps 744 mmHg 91%
06:00 +18°C° 0 mm 3 mps 744 mmHg 89%
07:00 +20°C° 0 mm 3 mps 744 mmHg 84%
08:00 +22°C° 0 mm 3 mps 744 mmHg 80%
09:00 +24°C° 0 mm 3 mps 744 mmHg 75%
10:00 +25°C° 0 mm 3 mps 745 mmHg 70%
11:00 +26°C° 0 mm 3 mps 745 mmHg 66%
12:00 +27°C° 0 mm 3 mps 745 mmHg 62%
13:00 +27°C° 0.2 mm 3 mps 745 mmHg 61%
14:00 +28°C° 0.2 mm 3 mps 745 mmHg 60%
15:00 +28°C° 0.2 mm 3 mps 746 mmHg 60%
16:00 +27°C° 0.6 mm 3 mps 746 mmHg 66%
17:00 +26°C° 0.6 mm 3 mps 746 mmHg 72%
18:00 +25°C° 0.6 mm 3 mps 746 mmHg 78%
19:00 +24°C° 0.1 mm 2 mps 746 mmHg 81%
20:00 +21°C° 0.1 mm 2 mps 747 mmHg 83%
21:00 +20°C° 0.1 mm 2 mps 747 mmHg 86%
22:00 +20°C° 0 mm 2 mps 747 mmHg 88%
23:00 +19°C° 0 mm 3 mps 748 mmHg 90%

Tomorrow, 17 June, Thursday

Time Temperature Precipitation Wind Pressure Humidity
00:00 +18°C° 0 mm 3 mps 748 mmHg 92%
01:00 +18°C° 0 mm 3 mps 748 mmHg 93%
02:00 +17°C° 0 mm 3 mps 749 mmHg 94%
03:00 +17°C° 0 mm 3 mps 749 mmHg 95%
04:00 +17°C° 0 mm 3 mps 750 mmHg 93%
05:00 +18°C° 0 mm 3 mps 750 mmHg 92%
06:00 +18°C° 0 mm 4 mps 750 mmHg 90%
07:00 +19°C° 0 mm 4 mps 751 mmHg 84%
08:00 +20°C° 0 mm 5 mps 751 mmHg 78%
09:00 +22°C° 0 mm 5 mps 751 mmHg 71%
10:00 +22°C° 0 mm 5 mps 752 mmHg 66%
11:00 +23°C° 0 mm 6 mps 752 mmHg 61%
12:00 +24°C° 0 mm 6 mps 752 mmHg 56%
13:00 +23°C° 0 mm 6 mps 752 mmHg 55%
14:00 +23°C° 0 mm 6 mps 753 mmHg 54%
15:00 +23°C° 0 mm 6 mps 753 mmHg 53%
16:00 +23°C° 0 mm 6 mps 753 mmHg 58%
17:00 +22°C° 0 mm 5 mps 753 mmHg 63%
18:00 +21°C° 0 mm 5 mps 754 mmHg 67%
19:00 +20°C° 0 mm 4 mps 754 mmHg 71%
20:00 +18°C° 0 mm 4 mps 754 mmHg 75%
21:00 +16°C° 0 mm 3 mps 754 mmHg 80%
22:00 +16°C° 0 mm 3 mps 755 mmHg 80%
23:00 +14°C° 0 mm 3 mps 755 mmHg 81%

Day after tomorrow, 18 June, Friday

Time Temperature Precipitation Wind Pressure Humidity
00:00 +13°C° 0 mm 4 mps 755 mmHg 81%
01:00 +13°C° 0 mm 3 mps 755 mmHg 81%
02:00 +12°C° 0 mm 3 mps 755 mmHg 80%
03:00 +12°C° 0 mm 3 mps 756 mmHg 80%
04:00 +13°C° 0 mm 3 mps 756 mmHg 80%
05:00 +13°C° 0 mm 3 mps 756 mmHg 79%
06:00 +14°C° 0 mm 3 mps 757 mmHg 79%
07:00 +15°C° 0 mm 4 mps 757 mmHg 72%
08:00 +18°C° 0 mm 4 mps 757 mmHg 66%
09:00 +20°C° 0 mm 5 mps 757 mmHg 60%
10:00 +21°C° 0 mm 5 mps 758 mmHg 57%
11:00 +22°C° 0 mm 5 mps 758 mmHg 53%
12:00 +22°C° 0 mm 5 mps 758 mmHg 50%
13:00 +23°C° 0 mm 5 mps 758 mmHg 50%
14:00 +23°C° 0 mm 4 mps 758 mmHg 50%
15:00 +23°C° 0 mm 4 mps 758 mmHg 51%
16:00 +23°C° 0 mm 4 mps 758 mmHg 55%
17:00 +22°C° 0 mm 4 mps 758 mmHg 60%
18:00 +22°C° 0 mm 4 mps 758 mmHg 64%
19:00 +20°C° 0 mm 3 mps 758 mmHg 69%
20:00 +18°C° 0 mm 3 mps 758 mmHg 74%
21:00 +16°C° 0 mm 3 mps 758 mmHg 78%
22:00 +16°C° 0 mm 2 mps 758 mmHg 79%
23:00 +15°C° 0 mm 2 mps 759 mmHg 80%

19 June, Saturday

Time Temperature Precipitation Wind Pressure Humidity
00:00 +14°C° 0 mm 2 mps 759 mmHg 82%
01:00 +14°C° 0 mm 2 mps 759 mmHg 83%
02:00 +13°C° 0 mm 1 mps 759 mmHg 84%
03:00 +13°C° 0 mm 1 mps 759 mmHg 85%
04:00 +14°C° 0 mm 1 mps 760 mmHg 82%
05:00 +15°C° 0 mm 1 mps 760 mmHg 79%
06:00 +16°C° 0 mm 1 mps 760 mmHg 76%
07:00 +18°C° 0 mm 1 mps 760 mmHg 71%
08:00 +20°C° 0 mm 1 mps 760 mmHg 66%
09:00 +20°C° 0 mm 2 mps 760 mmHg 61%
10:00 +21°C° 0 mm 2 mps 760 mmHg 58%
11:00 +23°C° 0 mm 2 mps 760 mmHg 55%
12:00 +24°C° 0 mm 2 mps 759 mmHg 53%
13:00 +25°C° 0 mm 2 mps 759 mmHg 52%
14:00 +25°C° 0 mm 2 mps 759 mmHg 51%
15:00 +26°C° 0 mm 2 mps 759 mmHg 50%
16:00 +26°C° 0 mm 1 mps 758 mmHg 53%
17:00 +26°C° 0 mm 1 mps 758 mmHg 56%
18:00 +26°C° 0 mm 1 mps 758 mmHg 59%
19:00 +24°C° 0 mm 1 mps 758 mmHg 64%
20:00 +20°C° 0 mm 0 mps 758 mmHg 68%
21:00 +18°C° 0 mm 0 mps 758 mmHg 72%
22:00 +17°C° 0 mm 0 mps 758 mmHg 74%
23:00 +17°C° 0 mm 0 mps 758 mmHg 76%

20 June, Sunday

Time Temperature Precipitation Wind Pressure Humidity
00:00 +16°C° 0 mm 0 mps 758 mmHg 77%
01:00 +18°C° 0 mm 1 mps 758 mmHg 79%
02:00 +18°C° 0 mm 1 mps 758 mmHg 81%
03:00 +16°C° 0 mm 1 mps 758 mmHg 83%
04:00 +18°C° 0 mm 1 mps 758 mmHg 82%
05:00 +19°C° 0 mm 1 mps 758 mmHg 82%
06:00 +20°C° 0 mm 1 mps 758 mmHg 81%
07:00 +22°C° 0 mm 1 mps 758 mmHg 77%
08:00 +23°C° 0 mm 1 mps 758 mmHg 73%
09:00 +25°C° 0 mm 2 mps 758 mmHg 69%
10:00 +26°C° 0 mm 1 mps 758 mmHg 66%
11:00 +27°C° 0 mm 1 mps 757 mmHg 62%
12:00 +28°C° 0 mm 1 mps 757 mmHg 59%
13:00 +28°C° 0 mm 1 mps 757 mmHg 57%
14:00 +29°C° 0 mm 1 mps 757 mmHg 55%
15:00 +29°C° 0 mm 1 mps 756 mmHg 53%
16:00 +29°C° 0 mm 1 mps 756 mmHg 57%
17:00 +29°C° 0 mm 1 mps 756 mmHg 61%
18:00 +29°C° 0 mm 2 mps 756 mmHg 65%
19:00 +27°C° 0 mm 2 mps 756 mmHg 70%
20:00 +25°C° 0 mm 2 mps 756 mmHg 75%
21:00 +23°C° 0 mm 2 mps 756 mmHg 80%
22:00 +21°C° 0 mm 2 mps 756 mmHg 82%
23:00 +21°C° 0 mm 2 mps 756 mmHg 84%

21 June, Monday

Time Temperature Precipitation Wind Pressure Humidity
00:00 +20°C° 0 mm 2 mps 756 mmHg 86%
01:00 +20°C° 0 mm 2 mps 756 mmHg 87%
02:00 +20°C° 0 mm 2 mps 756 mmHg 88%
03:00 +19°C° 0 mm 2 mps 756 mmHg 89%
04:00 +20°C° 0 mm 2 mps 756 mmHg 88%
05:00 +22°C° 0 mm 1 mps 756 mmHg 86%
06:00 +22°C° 0 mm 1 mps 756 mmHg 84%
07:00 +24°C° 0 mm 1 mps 756 mmHg 79%
08:00 +25°C° 0 mm 2 mps 756 mmHg 74%
09:00 +27°C° 0 mm 2 mps 756 mmHg 69%
10:00 +28°C° 0 mm 2 mps 755 mmHg 65%
11:00 +29°C° 0 mm 2 mps 755 mmHg 60%
12:00 +29°C° 0 mm 2 mps 755 mmHg 56%
13:00 +30°C° 0 mm 1 mps 755 mmHg 54%
14:00 +30°C° 0 mm 1 mps 754 mmHg 51%
15:00 +31°C° 0 mm 1 mps 754 mmHg 48%
16:00 +31°C° 0 mm 1 mps 754 mmHg 52%
17:00 +30°C° 0 mm 1 mps 754 mmHg 56%
18:00 +30°C° 0 mm 1 mps 754 mmHg 60%
19:00 +28°C° 0 mm 2 mps 754 mmHg 64%
20:00 +27°C° 0 mm 2 mps 754 mmHg 68%
21:00 +25°C° 0 mm 2 mps 754 mmHg 72%
22:00 +25°C° 0 mm 2 mps 754 mmHg 73%
23:00 +24°C° 0 mm 2 mps 754 mmHg 74%
Show more